Location: Unspecified
(0.0000°N, 0.0000°E)
Time: 12:13:29
(UTC+00:00)

N. Korean satellite - Pass Details

Date: 07 December 2019
Orbit: 455 x 506 km, 97.2° (Epoch: 10 December)

Event Time Altitude Azimuth Distance (km) Brightness Sun altitude
Rises 04:55:30 0° 32° (NNE) 2,477 10.3 -12.8°
Reaches altitude 10° 04:57:50 10° 47° (NE) 1,599 9.5 -12.3°
Maximum altitude 05:00:35 23° 101° (E) 1,031 9.3 -11.7°
Drops below altitude 10° 05:03:19 10° 154° (SSE) 1,595 9.9 -11.0°
Sets 05:05:38 0° 170° (S) 2,469 10.7 -10.5°
